Time,TemperatureF,DewpointF,PressureIn,WindDirection,WindDirectionDegrees,WindSpeedMPH,WindSpeedGustMPH,Humidity,HourlyPrecipIn,Conditions,Clouds,dailyrainin,SolarRadiationWatts/m^2,SoftwareType,DateUTC
2013-06-23 00:03:00,67.9,63.6,29.97,SSE,155,1.0,5.0,86,0.00,,CLR,0.00,0.00,VWS V14.01,2013-06-23 05:03:00,
2013-06-23 00:09:00,67.9,63.9,29.98,SSE,155,0.0,0.0,87,0.00,,CLR,0.00,0.00,VWS V14.01,2013-06-23 05:09:00,
2013-06-23 00:14:00,67.8,63.8,29.98,SSE,155,5.0,6.0,87,0.00,,CLR,0.00,0.00,VWS V14.01,2013-06-23 05:14:00,
2013-06-23 00:19:00,67.6,63.6,29.97,SSE,155,0.0,4.0,87,0.00,,CLR,0.00,0.00,VWS V14.01,2013-06-23 05:19:00,
2013-06-23 00:24:00,67.6,63.6,29.97,SSE,155,4.0,5.0,87,0.00,,CLR,0.00,0.00,VWS V14.01,2013-06-23 05:24:00,
2013-06-23 00:29:00,67.4,63.4,29.97,SSE,154,0.0,1.0,87,0.00,,CLR,0.00,0.00,VWS V14.01,2013-06-23 05:29:00,
2013-06-23 00:34:00,67.4,63.7,29.97,SSE,154,0.0,1.0,88,0.00,,CLR,0.00,0.00,VWS V14.01,2013-06-23 05:34:00,
2013-06-23 00:39:00,67.4,63.7,29.97,SSE,154,0.0,1.0,88,0.00,,CLR,0.00,0.00,VWS V14.01,2013-06-23 05:39:00,
2013-06-23 00:44:00,67.4,63.7,29.95,SSE,154,0.0,2.0,88,0.00,,CLR,0.00,0.00,VWS V14.01,2013-06-23 05:44:00,
2013-06-23 00:49:00,67.4,63.4,29.95,SSE,154,0.0,0.0,87,0.00,,CLR,0.00,0.00,VWS V14.01,2013-06-23 05:49:00,
2013-06-23 00:54:00,67.6,63.6,29.95,SSE,154,1.0,4.0,87,0.00,,CLR,0.00,0.00,VWS V14.01,2013-06-23 05:54:00,
2013-06-23 00:59:00,67.6,63.6,29.95,SSE,154,5.0,5.0,87,0.00,,CLR,0.00,0.00,VWS V14.01,2013-06-23 05:59:00,
2013-06-23 01:03:00,67.8,63.8,29.95,SSE,154,7.0,9.0,87,0.00,,CLR,0.00,0.00,VWS V14.01,2013-06-23 06:03:00,
2013-06-23 01:08:00,67.9,63.6,29.95,SSE,154,4.0,7.0,86,0.00,,CLR,0.00,0.00,VWS V14.01,2013-06-23 06:08:00,
2013-06-23 01:13:00,68.1,63.4,29.96,SSE,150,1.0,7.0,85,0.00,,CLR,0.00,0.00,VWS V14.01,2013-06-23 06:13:00,
2013-06-23 01:18:00,68.3,63.6,29.96,SSE,150,0.0,4.0,85,0.00,,CLR,0.00,0.00,VWS V14.01,2013-06-23 06:18:00,
2013-06-23 01:23:00,68.4,63.4,29.96,SSE,150,2.0,2.0,84,0.00,,CLR,0.00,0.00,VWS V14.01,2013-06-23 06:23:00,
2013-06-23 01:28:00,68.4,63.4,29.96,SSE,150,0.0,1.0,84,0.00,,CLR,0.00,0.00,VWS V14.01,2013-06-23 06:28:00,
2013-06-23 01:33:00,68.4,63.4,29.96,SSE,150,0.0,4.0,84,0.00,,CLR,0.00,0.00,VWS V14.01,2013-06-23 06:33:00,
2013-06-23 01:38:00,68.4,63.4,29.96,SSE,150,0.0,1.0,84,0.00,,CLR,0.00,0.00,VWS V14.01,2013-06-23 06:38:00,
2013-06-23 01:43:00,68.4,63.4,29.96,SSE,150,0.0,5.0,84,0.00,,CLR,0.00,0.00,VWS V14.01,2013-06-23 06:43:00,
2013-06-23 01:48:00,68.3,63.6,29.96,SSE,150,1.0,5.0,85,0.00,,CLR,0.00,0.00,VWS V14.01,2013-06-23 06:48:00,
2013-06-23 01:53:00,68.3,63.6,29.96,SSE,150,4.0,5.0,85,0.00,,CLR,0.00,0.00,VWS V14.01,2013-06-23 06:53:00,
2013-06-23 01:58:00,68.1,63.4,29.96,SSE,151,5.0,7.0,85,0.00,,CLR,0.00,0.00,VWS V14.01,2013-06-23 06:58:00,
2013-06-23 02:03:00,68.1,63.8,29.96,SSE,155,1.0,8.0,86,0.00,,CLR,0.00,0.00,VWS V14.01,2013-06-23 07:03:00,
2013-06-23 02:08:00,68.1,63.8,29.96,SSE,156,0.0,0.0,86,0.00,,CLR,0.00,0.00,VWS V14.01,2013-06-23 07:08:00,
2013-06-23 02:13:00,68.1,63.8,29.97,SSE,156,4.0,5.0,86,0.00,,CLR,0.00,0.00,VWS V14.01,2013-06-23 07:13:00,
2013-06-23 02:18:00,68.1,63.8,29.97,SSE,156,0.0,5.0,86,0.00,,CLR,0.00,0.00,VWS V14.01,2013-06-23 07:18:00,
2013-06-23 02:23:00,68.1,63.8,29.97,SSE,156,0.0,4.0,86,0.00,,CLR,0.00,0.00,VWS V14.01,2013-06-23 07:23:00,
2013-06-23 02:28:00,68.1,63.8,29.97,SSE,153,7.0,7.0,86,0.00,,CLR,0.00,0.00,VWS V14.01,2013-06-23 07:28:00,
2013-06-23 02:33:00,68.3,64.0,29.97,SE,136,4.0,8.0,86,0.00,,CLR,0.00,0.00,VWS V14.01,2013-06-23 07:33:00,
2013-06-23 02:38:00,68.3,64.0,29.97,SSE,148,5.0,9.0,86,0.00,,CLR,0.00,0.00,VWS V14.01,2013-06-23 07:38:00,
2013-06-23 02:43:00,68.1,63.8,29.97,SE,146,6.0,7.0,86,0.00,,CLR,0.00,0.00,VWS V14.01,2013-06-23 07:43:00,
2013-06-23 02:48:00,67.9,63.6,29.97,SE,146,6.0,7.0,86,0.00,,CLR,0.00,0.00,VWS V14.01,2013-06-23 07:48:00,
2013-06-23 02:53:00,67.9,63.9,29.97,SSE,156,5.0,6.0,87,0.00,,CLR,0.00,0.00,VWS V14.01,2013-06-23 07:53:00,
2013-06-23 02:58:00,67.9,63.9,29.97,SSE,155,5.0,7.0,87,0.00,,CLR,0.00,0.00,VWS V14.01,2013-06-23 07:58:00,
2013-06-23 03:04:00,68.1,64.1,29.97,SE,146,5.0,6.0,87,0.00,,CLR,0.00,0.00,VWS V14.01,2013-06-23 08:04:00,
2013-06-23 03:09:00,68.1,64.1,29.97,SE,138,4.0,6.0,87,0.00,,CLR,0.00,0.00,VWS V14.01,2013-06-23 08:09:00,
2013-06-23 03:14:00,68.1,64.1,29.97,SE,142,4.0,7.0,87,0.00,,CLR,0.00,0.00,VWS V14.01,2013-06-23 08:14:00,
2013-06-23 03:19:00,68.1,64.1,29.97,SE,142,2.0,8.0,87,0.00,,CLR,0.00,0.00,VWS V14.01,2013-06-23 08:19:00,
2013-06-23 03:24:00,68.3,64.3,29.97,SSE,157,4.0,7.0,87,0.00,,CLR,0.00,0.00,VWS V14.01,2013-06-23 08:24:00,
2013-06-23 03:29:00,68.3,64.3,29.97,SSE,158,5.0,7.0,87,0.00,,CLR,0.00,0.00,VWS V14.01,2013-06-23 08:29:00,
2013-06-23 03:34:00,68.4,64.4,29.97,SSE,164,7.0,10.0,87,0.00,,CLR,0.00,0.00,VWS V14.01,2013-06-23 08:34:00,
2013-06-23 03:39:00,68.4,64.4,29.96,SE,146,9.0,9.0,87,0.00,,CLR,0.00,0.00,VWS V14.01,2013-06-23 08:39:00,
2013-06-23 03:44:00,68.4,64.4,29.96,SE,136,4.0,6.0,87,0.00,,CLR,0.00,0.00,VWS V14.01,2013-06-23 08:44:00,
2013-06-23 03:49:00,68.4,64.4,29.96,SE,145,5.0,7.0,87,0.00,,CLR,0.00,0.00,VWS V14.01,2013-06-23 08:49:00,
2013-06-23 03:54:00,68.4,64.4,29.96,SE,124,6.0,8.0,87,0.00,,CLR,0.00,0.00,VWS V14.01,2013-06-23 08:54:00,
2013-06-23 03:59:00,68.4,64.4,29.96,SSE,150,5.0,8.0,87,0.00,,CLR,0.00,0.00,VWS V14.01,2013-06-23 08:59:00,
2013-06-23 04:04:00,68.4,64.4,29.96,SE,137,6.0,11.0,87,0.00,,CLR,0.00,0.00,VWS V14.01,2013-06-23 09:04:00,
2013-06-23 04:09:00,68.4,64.4,29.96,SE,140,7.0,7.0,87,0.00,,CLR,0.00,0.00,VWS V14.01,2013-06-23 09:09:00,
2013-06-23 04:14:00,68.4,64.1,29.96,SSE,156,5.0,10.0,86,0.00,,CLR,0.00,0.00,VWS V14.01,2013-06-23 09:14:00,
2013-06-23 04:19:00,68.6,64.2,29.96,SE,132,7.0,7.0,86,0.00,,CLR,0.00,0.00,VWS V14.01,2013-06-23 09:19:00,
2013-06-23 04:24:00,68.8,64.1,29.95,SE,130,7.0,8.0,85,0.00,,CLR,0.00,0.00,VWS V14.01,2013-06-23 09:24:00,
2013-06-23 04:29:00,68.9,63.5,29.95,SE,134,6.0,8.0,83,0.00,,CLR,0.00,0.00,VWS V14.01,2013-06-23 09:29:00,
2013-06-23 04:34:00,69.1,64.1,29.96,SE,139,5.0,5.0,84,0.00,,CLR,0.00,0.00,VWS V14.01,2013-06-23 09:34:00,
2013-06-23 04:39:00,69.1,64.1,29.96,SE,140,4.0,4.0,84,0.00,,CLR,0.00,0.00,VWS V14.01,2013-06-23 09:39:00,
2013-06-23 04:44:00,69.1,64.1,29.96,SSE,154,5.0,6.0,84,0.00,,CLR,0.00,0.00,VWS V14.01,2013-06-23 09:44:00,
2013-06-23 04:49:00,69.1,64.1,29.96,SSE,156,5.0,7.0,84,0.00,,CLR,0.00,0.00,VWS V14.01,2013-06-23 09:49:00,
2013-06-23 04:54:00,69.1,64.1,29.96,SSE,155,5.0,6.0,84,0.00,,CLR,0.00,0.00,VWS V14.01,2013-06-23 09:54:00,
2013-06-23 04:59:00,69.1,64.1,29.96,SSE,155,4.0,5.0,84,0.00,,CLR,0.00,0.00,VWS V14.01,2013-06-23 09:59:00,
2013-06-23 05:04:00,69.3,64.3,29.96,SSE,155,2.0,4.0,84,0.00,,CLR,0.00,0.00,VWS V14.01,2013-06-23 10:04:00,
2013-06-23 05:09:00,69.3,64.3,29.97,SSE,155,2.0,6.0,84,0.00,,CLR,0.00,0.00,VWS V14.01,2013-06-23 10:09:00,
2013-06-23 05:14:00,69.3,64.3,29.98,SSE,157,5.0,7.0,84,0.00,,CLR,0.00,0.00,VWS V14.01,2013-06-23 10:14:00,
2013-06-23 05:19:00,69.4,64.0,29.98,SSE,157,8.0,10.0,83,0.00,,CLR,0.00,0.00,VWS V14.01,2013-06-23 10:19:00,
2013-06-23 05:24:00,69.6,64.2,29.98,SE,141,5.0,8.0,83,0.00,,CLR,0.00,0.00,VWS V14.01,2013-06-23 10:24:00,
2013-06-23 05:30:00,69.6,64.2,29.98,SE,138,5.0,9.0,83,0.00,,CLR,0.00,0.00,VWS V14.01,2013-06-23 10:30:00,
2013-06-23 05:35:00,69.4,64.0,29.99,SSE,163,8.0,11.0,83,0.00,,CLR,0.00,0.00,VWS V14.01,2013-06-23 10:35:00,
2013-06-23 05:40:00,69.3,64.3,29.99,SSE,155,6.0,9.0,84,0.00,,CLR,0.00,0.00,VWS V14.01,2013-06-23 10:40:00,
2013-06-23 05:45:00,69.1,64.4,29.99,SSE,164,4.0,9.0,85,0.00,,CLR,0.00,0.00,VWS V14.01,2013-06-23 10:45:00,
2013-06-23 05:50:00,69.1,64.4,29.99,SE,146,4.0,6.0,85,0.00,,CLR,0.00,0.00,VWS V14.01,2013-06-23 10:50:00,
2013-06-23 05:56:00,68.9,64.2,30.00,SSE,152,4.0,8.0,85,0.00,,CLR,0.00,0.00,VWS V14.01,2013-06-23 10:56:00,
2013-06-23 06:01:00,68.9,64.2,30.00,SE,128,6.0,8.0,85,0.00,,CLR,0.00,0.00,VWS V14.01,2013-06-23 11:01:00,
2013-06-23 06:06:00,68.9,64.2,30.00,SSE,152,4.0,7.0,85,0.00,,CLR,0.00,0.00,VWS V14.01,2013-06-23 11:06:00,
2013-06-23 06:11:00,68.9,64.6,30.00,SSE,153,6.0,8.0,86,0.00,,CLR,0.00,0.00,VWS V14.01,2013-06-23 11:11:00,
2013-06-23 06:17:00,68.9,64.6,30.00,SSE,150,4.0,7.0,86,0.00,,CLR,0.00,5.00,VWS V14.01,2013-06-23 11:17:00,
2013-06-23 06:22:00,68.9,64.6,30.01,SSE,157,1.0,8.0,86,0.00,,CLR,0.00,5.00,VWS V14.01,2013-06-23 11:22:00,
2013-06-23 06:27:00,68.8,64.8,30.01,SSE,156,4.0,7.0,87,0.00,,CLR,0.00,7.00,VWS V14.01,2013-06-23 11:27:00,
2013-06-23 06:32:00,68.6,64.9,30.00,SSE,156,4.0,4.0,88,0.00,,CLR,0.00,9.00,VWS V14.01,2013-06-23 11:32:00,
2013-06-23 06:37:00,68.4,64.7,30.00,SSE,157,4.0,8.0,88,0.00,,CLR,0.00,11.00,VWS V14.01,2013-06-23 11:37:00,
2013-06-23 06:42:00,68.4,64.7,30.00,SSE,158,9.0,9.0,88,0.00,,CLR,0.00,12.00,VWS V14.01,2013-06-23 11:42:00,
2013-06-23 06:47:00,68.4,64.7,30.00,South,178,4.0,8.0,88,0.00,,CLR,0.00,14.00,VWS V14.01,2013-06-23 11:47:00,
2013-06-23 06:52:00,68.4,64.7,29.99,SSE,160,2.0,10.0,88,0.00,,CLR,0.00,18.00,VWS V14.01,2013-06-23 11:52:00,
2013-06-23 06:57:00,68.4,64.7,29.99,SSE,148,6.0,11.0,88,0.00,,CLR,0.00,19.00,VWS V14.01,2013-06-23 11:57:00,
2013-06-23 07:02:00,68.6,64.6,29.99,SSE,156,4.0,8.0,87,0.00,,CLR,0.00,23.00,VWS V14.01,2013-06-23 12:02:00,
2013-06-23 07:07:00,68.6,64.6,29.99,SSE,159,8.0,14.0,87,0.00,,CLR,0.00,28.00,VWS V14.01,2013-06-23 12:07:00,
2013-06-23 07:12:00,68.8,64.8,29.99,SSE,155,7.0,10.0,87,0.00,,CLR,0.00,33.00,VWS V14.01,2013-06-23 12:12:00,
2013-06-23 07:17:00,68.8,64.4,29.99,SSE,154,6.0,12.0,86,0.00,,CLR,0.00,37.00,VWS V14.01,2013-06-23 12:17:00,
2013-06-23 07:22:00,68.8,64.4,29.98,SSE,157,5.0,12.0,86,0.00,,CLR,0.00,49.00,VWS V14.01,2013-06-23 12:22:00,
2013-06-23 07:27:00,68.9,64.6,29.98,SSE,157,11.0,13.0,86,0.00,,CLR,0.00,63.00,VWS V14.01,2013-06-23 12:27:00,
2013-06-23 07:33:00,68.9,64.2,29.97,SSE,153,7.0,11.0,85,0.00,,CLR,0.00,83.00,VWS V14.01,2013-06-23 12:33:00,
2013-06-23 07:38:00,69.1,64.4,29.97,SSE,165,6.0,8.0,85,0.00,,CLR,0.00,98.00,VWS V14.01,2013-06-23 12:38:00,
2013-06-23 07:43:00,69.1,64.1,29.97,SSE,163,2.0,10.0,84,0.00,,CLR,0.00,111.00,VWS V14.01,2013-06-23 12:43:00,
2013-06-23 07:48:00,69.3,64.3,29.97,SSE,154,7.0,12.0,84,0.00,,CLR,0.00,121.00,VWS V14.01,2013-06-23 12:48:00,
2013-06-23 07:53:00,69.6,64.6,29.97,SSE,155,8.0,8.0,84,0.00,,CLR,0.00,134.00,VWS V14.01,2013-06-23 12:53:00,
2013-06-23 07:58:00,69.8,64.4,29.97,SSE,155,7.0,9.0,83,0.00,,CLR,0.00,148.00,VWS V14.01,2013-06-23 12:58:00,
2013-06-23 08:03:00,69.9,64.5,29.97,SSE,160,1.0,9.0,83,0.00,,-RA,0.00,155.00,VWS V14.01,2013-06-23 13:03:00,
2013-06-23 08:08:00,70.1,64.7,29.97,SE,141,7.0,7.0,83,0.00,,-RA,0.00,160.00,VWS V14.01,2013-06-23 13:08:00,
2013-06-23 08:13:00,70.3,64.6,29.97,SSE,155,2.0,6.0,82,0.00,,-RA,0.00,165.00,VWS V14.01,2013-06-23 13:13:00,
2013-06-23 08:18:00,70.4,64.7,29.97,SSE,158,6.0,9.0,82,0.00,,-RA,0.00,162.00,VWS V14.01,2013-06-23 13:18:00,
2013-06-23 08:23:00,70.8,64.7,29.98,SE,142,6.0,7.0,81,0.00,,-RA,0.00,151.00,VWS V14.01,2013-06-23 13:23:00,
2013-06-23 08:28:00,70.9,64.4,29.98,SSE,152,7.0,9.0,80,0.00,,-RA,0.00,135.00,VWS V14.01,2013-06-23 13:28:00,
2013-06-23 08:33:00,71.1,64.6,29.97,SSE,152,0.0,6.0,80,0.00,,-RA,0.00,160.00,VWS V14.01,2013-06-23 13:33:00,
2013-06-23 08:38:00,71.5,65.0,29.97,South,175,9.0,9.0,80,0.00,,-RA,0.00,158.00,VWS V14.01,2013-06-23 13:38:00,
2013-06-23 08:43:00,71.6,64.8,29.97,SSE,163,6.0,9.0,79,0.00,,-RA,0.00,272.00,VWS V14.01,2013-06-23 13:43:00,
2013-06-23 08:48:00,72.3,65.1,29.97,SSE,153,8.0,10.0,78,0.00,,-RA,0.00,526.00,VWS V14.01,2013-06-23 13:48:00,
2013-06-23 08:53:00,72.8,65.2,29.97,SSE,158,10.0,11.0,77,0.00,,-RA,0.00,547.00,VWS V14.01,2013-06-23 13:53:00,
2013-06-23 08:58:00,73.3,64.9,29.97,South,186,6.0,13.0,75,0.00,,-RA,0.00,561.00,VWS V14.01,2013-06-23 13:58:00,
2013-06-23 09:04:00,74.0,64.8,29.97,SSE,164,6.0,12.0,73,0.00,,CLR,0.00,575.00,VWS V14.01,2013-06-23 14:04:00,
2013-06-23 09:09:00,74.7,64.7,29.97,SSE,147,4.0,9.0,71,0.00,,CLR,0.00,582.00,VWS V14.01,2013-06-23 14:09:00,
2013-06-23 09:14:00,75.1,64.7,29.97,SSE,160,11.0,14.0,70,0.00,,CLR,0.00,571.00,VWS V14.01,2013-06-23 14:14:00,
2013-06-23 09:19:00,75.4,64.5,29.96,SSE,155,7.0,9.0,69,0.00,,CLR,0.00,568.00,VWS V14.01,2013-06-23 14:19:00,
2013-06-23 09:24:00,75.8,64.9,29.96,SSE,159,4.0,10.0,69,0.00,,CLR,0.00,540.00,VWS V14.01,2013-06-23 14:24:00,
2013-06-23 09:29:00,76.0,65.1,29.97,SSE,157,7.0,12.0,69,0.00,,CLR,0.00,450.00,VWS V14.01,2013-06-23 14:29:00,
2013-06-23 09:34:00,76.1,65.2,29.97,SSE,150,2.0,14.0,69,0.00,,CLR,0.00,582.00,VWS V14.01,2013-06-23 14:34:00,
2013-06-23 09:40:00,76.3,65.0,29.97,SSE,152,18.0,21.0,68,0.00,,CLR,0.00,615.00,VWS V14.01,2013-06-23 14:40:00,
2013-06-23 09:45:00,76.5,65.6,29.97,SSE,161,7.0,8.0,69,0.00,,CLR,0.00,610.00,VWS V14.01,2013-06-23 14:45:00,
2013-06-23 09:50:00,76.7,65.8,29.97,SSE,159,17.0,17.0,69,0.00,,CLR,0.00,561.00,VWS V14.01,2013-06-23 14:50:00,
2013-06-23 09:55:00,76.7,66.2,29.97,SW,227,5.0,8.0,70,0.00,,CLR,0.00,589.00,VWS V14.01,2013-06-23 14:55:00,
2013-06-23 10:00:00,76.8,65.9,29.98,SSW,195,4.0,6.0,69,0.00,,CLR,0.00,591.00,VWS V14.01,2013-06-23 15:00:00,
2013-06-23 10:05:00,76.8,66.3,29.98,SSW,192,9.0,14.0,70,0.00,,CLR,0.00,640.00,VWS V14.01,2013-06-23 15:05:00,
2013-06-23 10:10:00,77.0,66.9,29.98,SSE,167,4.0,7.0,71,0.00,,CLR,0.00,642.00,VWS V14.01,2013-06-23 15:10:00,
2013-06-23 10:15:00,76.8,67.1,29.98,SSE,160,2.0,10.0,72,0.00,,CLR,0.00,612.00,VWS V14.01,2013-06-23 15:15:00,
2013-06-23 10:20:00,77.2,67.5,29.99,SSW,200,7.0,8.0,72,0.00,,CLR,0.00,673.00,VWS V14.01,2013-06-23 15:20:00,
2013-06-23 10:25:00,77.2,67.5,29.99,South,172,10.0,10.0,72,0.00,,CLR,0.00,545.00,VWS V14.01,2013-06-23 15:25:00,
2013-06-23 10:30:00,76.8,67.5,29.98,SSE,162,4.0,12.0,73,0.00,,CLR,0.00,548.00,VWS V14.01,2013-06-23 15:30:00,
2013-06-23 10:36:00,77.2,68.3,29.99,WSW,238,4.0,4.0,74,0.00,,CLR,0.00,543.00,VWS V14.01,2013-06-23 15:36:00,
2013-06-23 10:41:00,77.7,68.8,29.98,South,186,7.0,10.0,74,0.00,,CLR,0.00,645.00,VWS V14.01,2013-06-23 15:41:00,
2013-06-23 10:46:00,77.9,68.6,29.98,South,169,4.0,8.0,73,0.00,,CLR,0.00,645.00,VWS V14.01,2013-06-23 15:46:00,
2013-06-23 10:51:00,78.1,68.3,29.98,SSW,199,8.0,9.0,72,0.00,,CLR,0.00,483.00,VWS V14.01,2013-06-23 15:51:00,
2013-06-23 10:56:00,78.1,68.8,29.98,SSE,161,5.0,10.0,73,0.00,,CLR,0.00,520.00,VWS V14.01,2013-06-23 15:56:00,
2013-06-23 11:01:00,78.3,68.9,29.99,South,171,8.0,10.0,73,0.00,,CLR,0.00,529.00,VWS V14.01,2013-06-23 16:01:00,
2013-06-23 11:07:00,78.6,68.8,29.99,SSE,163,4.0,14.0,72,0.00,,CLR,0.00,687.00,VWS V14.01,2013-06-23 16:07:00,
2013-06-23 11:12:00,79.0,69.2,29.98,South,171,7.0,11.0,72,0.00,,CLR,0.00,759.00,VWS V14.01,2013-06-23 16:12:00,
2013-06-23 11:17:00,79.4,69.2,29.98,SSE,167,7.0,15.0,71,0.00,,CLR,0.00,831.00,VWS V14.01,2013-06-23 16:17:00,
2013-06-23 11:22:00,79.6,69.4,29.98,SSW,206,3.0,8.0,71,0.00,,CLR,0.00,891.00,VWS V14.01,2013-06-23 16:22:00,
2013-06-23 11:27:00,79.8,69.2,29.98,SSE,163,8.0,8.0,70,0.00,,CLR,0.00,949.00,VWS V14.01,2013-06-23 16:27:00,
2013-06-23 11:32:00,79.9,69.2,29.99,SSE,149,5.0,14.0,70,0.00,,CLR,0.00,963.00,VWS V14.01,2013-06-23 16:32:00,
2013-06-23 11:37:00,79.9,69.2,29.98,SSE,153,7.0,9.0,70,0.00,,CLR,0.00,933.00,VWS V14.01,2013-06-23 16:37:00,
2013-06-23 11:42:00,80.3,69.2,29.98,South,170,6.0,10.0,69,0.00,,CLR,0.00,1009.00,VWS V14.01,2013-06-23 16:42:00,
2013-06-23 11:47:00,80.5,68.5,29.99,SW,219,10.0,13.0,67,0.00,,CLR,0.00,1042.00,VWS V14.01,2013-06-23 16:47:00,
2013-06-23 11:53:00,80.9,68.5,29.99,SSE,159,11.0,12.0,66,0.00,,CLR,0.00,882.00,VWS V14.01,2013-06-23 16:53:00,
2013-06-23 11:57:00,81.1,68.2,29.98,SSE,155,4.0,13.0,65,0.00,,CLR,0.00,1100.00,VWS V14.01,2013-06-23 16:57:00,
2013-06-23 11:58:00,81.1,68.2,29.98,South,184,8.0,11.0,65,0.00,,CLR,0.00,1100.00,VWS V14.01,2013-06-23 16:58:00,
2013-06-23 11:59:00,81.1,69.1,29.98,South,172,0.0,8.0,67,0.00,,CLR,0.00,1100.00,VWS V14.01,2013-06-23 16:59:00,
2013-06-23 12:01:00,81.2,68.8,29.98,SSE,157,8.0,13.0,66,0.00,,CLR,0.00,506.00,VWS V14.01,2013-06-23 17:01:00,
2013-06-23 12:06:00,81.1,68.2,29.99,SW,214,12.0,14.0,65,0.00,,CLR,0.00,756.00,VWS V14.01,2013-06-23 17:06:00,
2013-06-23 12:11:00,80.9,68.5,29.99,SSE,166,4.0,14.0,66,0.00,,CLR,0.00,800.00,VWS V14.01,2013-06-23 17:11:00,
2013-06-23 12:16:00,81.1,68.7,29.99,SSW,193,3.0,7.0,66,0.00,,CLR,0.00,765.00,VWS V14.01,2013-06-23 17:16:00,
2013-06-23 12:21:00,81.1,68.7,29.99,SSW,209,5.0,7.0,66,0.00,,CLR,0.00,540.00,VWS V14.01,2013-06-23 17:21:00,
2013-06-23 12:26:00,80.9,68.5,29.99,SW,231,5.0,10.0,66,0.00,,CLR,0.00,439.00,VWS V14.01,2013-06-23 17:26:00,
2013-06-23 12:31:00,80.9,68.5,29.98,South,171,6.0,6.0,66,0.00,,CLR,0.00,455.00,VWS V14.01,2013-06-23 17:31:00,
2013-06-23 12:36:00,80.9,68.5,29.99,SW,230,6.0,8.0,66,0.00,,CLR,0.00,483.00,VWS V14.01,2013-06-23 17:36:00,
2013-06-23 12:41:00,80.9,68.5,29.98,SSW,209,4.0,14.0,66,0.00,,CLR,0.00,613.00,VWS V14.01,2013-06-23 17:41:00,
2013-06-23 12:46:00,81.2,68.8,29.98,SSE,164,4.0,18.0,66,0.00,,CLR,0.00,628.00,VWS V14.01,2013-06-23 17:46:00,
2013-06-23 12:51:00,81.6,69.6,29.98,SSE,165,5.0,7.0,67,0.00,,CLR,0.00,649.00,VWS V14.01,2013-06-23 17:51:00,
2013-06-23 12:56:00,82.0,69.5,29.98,SSE,163,4.0,9.0,66,0.00,,CLR,0.00,805.00,VWS V14.01,2013-06-23 17:56:00,
2013-06-23 13:01:00,82.2,68.8,29.98,SSW,196,7.0,8.0,64,0.00,,CLR,0.00,680.00,VWS V14.01,2013-06-23 18:01:00,
2013-06-23 13:06:00,82.2,68.4,29.97,SSE,158,4.0,7.0,63,0.00,,CLR,0.00,575.00,VWS V14.01,2013-06-23 18:06:00,
2013-06-23 13:11:00,82.2,68.4,29.97,SSE,155,12.0,15.0,63,0.00,,CLR,0.00,965.00,VWS V14.01,2013-06-23 18:11:00,
2013-06-23 13:16:00,82.2,68.8,29.97,SSE,161,8.0,15.0,64,0.00,,CLR,0.00,914.00,VWS V14.01,2013-06-23 18:16:00,
2013-06-23 13:21:00,82.2,68.8,29.97,South,174,4.0,7.0,64,0.00,,CLR,0.00,949.00,VWS V14.01,2013-06-23 18:21:00,
2013-06-23 13:26:00,82.4,69.0,29.96,SE,146,10.0,14.0,64,0.00,,CLR,0.00,874.00,VWS V14.01,2013-06-23 18:26:00,
2013-06-23 13:31:00,82.6,68.7,29.96,SSE,165,6.0,9.0,63,0.00,,CLR,0.00,967.00,VWS V14.01,2013-06-23 18:31:00,
2013-06-23 13:36:00,82.8,67.5,29.96,SSE,167,10.0,15.0,60,0.00,,CLR,0.00,900.00,VWS V14.01,2013-06-23 18:36:00,
2013-06-23 13:42:00,83.0,68.7,29.96,SE,132,13.0,14.0,62,0.00,,CLR,0.00,765.00,VWS V14.01,2013-06-23 18:42:00,
2013-06-23 13:47:00,82.6,67.8,29.96,SSE,157,4.0,7.0,61,0.00,,CLR,0.00,592.00,VWS V14.01,2013-06-23 18:47:00,
2013-06-23 13:52:00,82.6,67.3,29.96,SSE,162,1.0,11.0,60,0.00,,CLR,0.00,596.00,VWS V14.01,2013-06-23 18:52:00,
2013-06-23 13:57:00,82.4,67.1,29.96,SSE,163,9.0,15.0,60,0.00,,CLR,0.00,568.00,VWS V14.01,2013-06-23 18:57:00,
2013-06-23 14:02:00,82.0,67.7,29.96,SSW,192,4.0,6.0,62,0.00,,CLR,0.00,744.00,VWS V14.01,2013-06-23 19:02:00,
2013-06-23 14:07:00,81.8,67.5,29.95,SE,142,8.0,16.0,62,0.00,,CLR,0.00,793.00,VWS V14.01,2013-06-23 19:07:00,
2013-06-23 14:12:00,81.6,67.3,29.95,SSE,161,5.0,15.0,62,0.00,,CLR,0.00,853.00,VWS V14.01,2013-06-23 19:12:00,
2013-06-23 14:17:00,81.8,67.5,29.95,SSE,158,12.0,17.0,62,0.00,,CLR,0.00,875.00,VWS V14.01,2013-06-23 19:17:00,
2013-06-23 14:22:00,81.6,67.3,29.95,SSE,161,13.0,20.0,62,0.00,,CLR,0.00,844.00,VWS V14.01,2013-06-23 19:22:00,
2013-06-23 14:27:00,81.6,68.7,29.94,SSE,155,14.0,15.0,65,0.00,,CLR,0.00,879.00,VWS V14.01,2013-06-23 19:27:00,
2013-06-23 14:32:00,81.6,68.7,29.94,SSE,167,9.0,17.0,65,0.00,,CLR,0.00,860.00,VWS V14.01,2013-06-23 19:32:00,
2013-06-23 14:37:00,81.8,68.4,29.93,SSE,157,10.0,19.0,64,0.00,,CLR,0.00,895.00,VWS V14.01,2013-06-23 19:37:00,
2013-06-23 14:42:00,82.0,68.2,29.93,South,169,9.0,12.0,63,0.00,,CLR,0.00,849.00,VWS V14.01,2013-06-23 19:42:00,
2013-06-23 14:47:00,82.8,68.5,29.92,South,172,5.0,9.0,62,0.00,,CLR,0.00,884.00,VWS V14.01,2013-06-23 19:47:00,
2013-06-23 14:53:00,83.0,68.2,29.92,South,188,7.0,15.0,61,0.00,,CLR,0.00,814.00,VWS V14.01,2013-06-23 19:53:00,
2013-06-23 14:58:00,82.6,65.3,29.92,SE,146,19.0,22.0,56,0.00,,CLR,0.00,900.00,VWS V14.01,2013-06-23 19:58:00,
2013-06-23 15:03:00,82.8,68.0,29.91,SE,143,2.0,15.0,61,0.00,,CLR,0.00,895.00,VWS V14.01,2013-06-23 20:03:00,
2013-06-23 15:08:00,83.2,68.8,29.92,SSE,150,6.0,12.0,62,0.00,,CLR,0.00,840.00,VWS V14.01,2013-06-23 20:08:00,
2013-06-23 15:14:00,82.4,69.5,29.92,SSE,158,13.0,17.0,65,0.00,,CLR,0.00,548.00,VWS V14.01,2013-06-23 20:14:00,
2013-06-23 15:19:00,82.0,69.5,29.93,SSE,167,10.0,14.0,66,0.00,,CLR,0.00,779.00,VWS V14.01,2013-06-23 20:19:00,
2013-06-23 15:24:00,82.0,68.2,29.93,SSE,150,7.0,13.0,63,0.00,,CLR,0.00,824.00,VWS V14.01,2013-06-23 20:24:00,
2013-06-23 15:29:00,82.4,68.6,29.92,SSE,158,1.0,6.0,63,0.00,,CLR,0.00,747.00,VWS V14.01,2013-06-23 20:29:00,
2013-06-23 15:34:00,82.4,68.6,29.92,SSE,165,15.0,17.0,63,0.00,,CLR,0.00,756.00,VWS V14.01,2013-06-23 20:34:00,
2013-06-23 15:39:00,82.0,69.1,29.92,SE,139,5.0,14.0,65,0.00,,CLR,0.00,784.00,VWS V14.01,2013-06-23 20:39:00,
2013-06-23 15:44:00,81.4,69.0,29.91,South,171,11.0,17.0,66,0.00,,CLR,0.00,816.00,VWS V14.01,2013-06-23 20:44:00,
2013-06-23 15:49:00,81.6,69.2,29.91,SSE,151,15.0,18.0,66,0.00,,CLR,0.00,752.00,VWS V14.01,2013-06-23 20:49:00,
2013-06-23 15:54:00,81.4,69.4,29.90,South,169,10.0,16.0,67,0.00,,CLR,0.00,737.00,VWS V14.01,2013-06-23 20:54:00,
2013-06-23 15:59:00,81.2,69.2,29.89,SE,133,8.0,17.0,67,0.00,,CLR,0.00,735.00,VWS V14.01,2013-06-23 20:59:00,
2013-06-23 16:04:00,81.2,68.8,29.90,South,173,12.0,15.0,66,0.00,,CLR,0.00,726.00,VWS V14.01,2013-06-23 21:04:00,
2013-06-23 16:09:00,81.2,69.2,29.90,SSE,161,1.0,10.0,67,0.00,,CLR,0.00,608.00,VWS V14.01,2013-06-23 21:09:00,
2013-06-23 16:14:00,81.2,69.6,29.91,SSE,166,6.0,10.0,68,0.00,,CLR,0.00,580.00,VWS V14.01,2013-06-23 21:14:00,
2013-06-23 16:19:00,80.5,68.5,29.90,SSE,159,4.0,15.0,67,0.00,,CLR,0.00,167.00,VWS V14.01,2013-06-23 21:19:00,
2013-06-23 16:24:00,79.9,68.4,29.91,SSW,200,9.0,11.0,68,0.00,,CLR,0.00,155.00,VWS V14.01,2013-06-23 21:24:00,
2013-06-23 16:29:00,79.4,68.3,29.91,SSE,165,8.0,11.0,69,0.00,,CLR,0.00,148.00,VWS V14.01,2013-06-23 21:29:00,
2013-06-23 16:34:00,79.2,68.2,29.92,SE,145,8.0,10.0,69,0.00,,CLR,0.00,141.00,VWS V14.01,2013-06-23 21:34:00,
2013-06-23 16:40:00,79.0,68.8,29.92,SSE,161,2.0,8.0,71,0.00,,CLR,0.00,121.00,VWS V14.01,2013-06-23 21:40:00,
2013-06-23 16:45:00,78.8,69.0,29.93,SSE,155,5.0,12.0,72,0.00,,CLR,0.00,95.00,VWS V14.01,2013-06-23 21:45:00,
2013-06-23 16:50:00,78.6,68.8,29.93,SSE,165,14.0,17.0,72,0.00,,CLR,0.00,98.00,VWS V14.01,2013-06-23 21:50:00,
2013-06-23 16:55:00,78.5,68.7,29.93,SW,227,3.0,7.0,72,0.00,,CLR,0.00,93.00,VWS V14.01,2013-06-23 21:55:00,
2013-06-23 16:57:00,78.5,68.7,29.93,SSW,213,1.0,9.0,72,0.00,,CLR,0.00,88.00,VWS V14.01,2013-06-23 21:57:00,
2013-06-23 17:03:00,78.3,68.5,29.93,SSE,165,2.0,5.0,72,0.00,,FEW024,0.00,72.00,VWS V14.01,2013-06-23 22:03:00,
2013-06-23 17:08:00,78.1,68.8,29.93,SSE,156,1.0,9.0,73,0.00,,FEW024,0.00,60.00,VWS V14.01,2013-06-23 22:08:00,
2013-06-23 17:14:00,77.9,68.6,29.93,South,188,0.0,8.0,73,0.00,,FEW024,0.00,53.00,VWS V14.01,2013-06-23 22:14:00,
2013-06-23 17:19:00,77.7,68.4,29.93,SSE,160,2.0,4.0,73,0.00,,FEW024,0.00,47.00,VWS V14.01,2013-06-23 22:19:00,
2013-06-23 17:24:00,77.7,68.4,29.93,SSE,159,7.0,9.0,73,0.00,,FEW024,0.00,44.00,VWS V14.01,2013-06-23 22:24:00,
2013-06-23 17:29:00,77.7,68.8,29.92,SSE,155,4.0,9.0,74,0.00,,FEW024,0.00,42.00,VWS V14.01,2013-06-23 22:29:00,
2013-06-23 17:34:00,77.7,68.8,29.92,SSE,156,10.0,12.0,74,0.00,,FEW024,0.00,44.00,VWS V14.01,2013-06-23 22:34:00,
2013-06-23 17:39:00,77.6,68.3,29.92,SSE,160,5.0,12.0,73,0.00,,FEW024,0.00,47.00,VWS V14.01,2013-06-23 22:39:00,
2013-06-23 17:44:00,77.6,68.3,29.91,SSE,153,8.0,10.0,73,0.00,,FEW024,0.00,47.00,VWS V14.01,2013-06-23 22:44:00,
2013-06-23 17:50:00,77.6,68.3,29.91,SSE,153,4.0,5.0,73,0.00,,FEW024,0.00,49.00,VWS V14.01,2013-06-23 22:50:00,
2013-06-23 17:55:00,77.4,68.5,29.91,SSE,154,5.0,8.0,74,0.00,,FEW024,0.00,53.00,VWS V14.01,2013-06-23 22:55:00,
2013-06-23 18:01:00,77.4,68.5,29.91,SSE,153,10.0,10.0,74,0.00,,FEW024,0.00,56.00,VWS V14.01,2013-06-23 23:01:00,
2013-06-23 18:06:00,77.2,68.7,29.90,SSE,163,6.0,16.0,75,0.00,,FEW024,0.00,62.00,VWS V14.01,2013-06-23 23:06:00,
2013-06-23 18:12:00,77.2,68.7,29.90,SSE,158,4.0,9.0,75,0.00,,FEW024,0.00,72.00,VWS V14.01,2013-06-23 23:12:00,
2013-06-23 18:17:00,77.2,69.1,29.90,SW,215,2.0,4.0,76,0.00,,FEW024,0.00,84.00,VWS V14.01,2013-06-23 23:17:00,
2013-06-23 18:22:00,77.2,69.1,29.90,SW,214,3.0,6.0,76,0.00,,FEW024,0.00,91.00,VWS V14.01,2013-06-23 23:22:00,
2013-06-23 18:27:00,77.4,69.2,29.90,SSE,149,10.0,12.0,76,0.00,,FEW024,0.00,93.00,VWS V14.01,2013-06-23 23:27:00,
2013-06-23 18:32:00,77.4,69.2,29.90,SSE,150,5.0,12.0,76,0.00,,FEW024,0.00,93.00,VWS V14.01,2013-06-23 23:32:00,
2013-06-23 18:37:00,77.4,69.2,29.89,SSE,150,8.0,11.0,76,0.00,,FEW024,0.00,91.00,VWS V14.01,2013-06-23 23:37:00,
2013-06-23 18:42:00,77.6,69.4,29.89,SSE,153,7.0,10.0,76,0.00,,FEW024,0.00,88.00,VWS V14.01,2013-06-23 23:42:00,
2013-06-23 18:48:00,77.6,69.4,29.88,SSE,159,9.0,12.0,76,0.00,,FEW024,0.00,81.00,VWS V14.01,2013-06-23 23:48:00,
2013-06-23 18:53:00,77.7,69.5,29.88,SSE,161,9.0,9.0,76,0.00,,FEW024,0.00,76.00,VWS V14.01,2013-06-23 23:53:00,
2013-06-23 18:58:00,77.7,69.5,29.87,SSE,155,11.0,13.0,76,0.00,,FEW024,0.00,72.00,VWS V14.01,2013-06-23 23:58:00,
2013-06-23 19:03:00,77.7,69.5,29.88,SE,128,8.0,13.0,76,0.00,,CLR,0.00,69.00,VWS V14.01,2013-06-24 00:03:00,
2013-06-23 19:09:00,77.6,69.8,29.87,SSE,151,8.0,12.0,77,0.00,,CLR,0.00,67.00,VWS V14.01,2013-06-24 00:09:00,
2013-06-23 19:14:00,77.6,69.8,29.87,SE,129,7.0,11.0,77,0.00,,CLR,0.00,63.00,VWS V14.01,2013-06-24 00:14:00,
2013-06-23 19:19:00,77.6,69.4,29.87,SSE,165,9.0,11.0,76,0.00,,CLR,0.00,58.00,VWS V14.01,2013-06-24 00:19:00,
2013-06-23 19:24:00,77.4,70.0,29.87,SSE,159,7.0,10.0,78,0.00,,CLR,0.00,53.00,VWS V14.01,2013-06-24 00:24:00,
2013-06-23 19:29:00,77.2,69.8,29.87,SSE,150,7.0,10.0,78,0.00,,CLR,0.00,47.00,VWS V14.01,2013-06-24 00:29:00,
2013-06-23 19:34:00,77.2,69.8,29.87,SSE,151,6.0,10.0,78,0.00,,CLR,0.00,42.00,VWS V14.01,2013-06-24 00:34:00,
2013-06-23 19:39:00,77.2,69.8,29.87,SE,146,6.0,6.0,78,0.00,,CLR,0.00,40.00,VWS V14.01,2013-06-24 00:39:00,
2013-06-23 19:45:00,77.2,69.8,29.88,SE,138,7.0,8.0,78,0.00,,CLR,0.00,42.00,VWS V14.01,2013-06-24 00:45:00,
2013-06-23 19:50:00,77.2,70.2,29.88,ESE,121,8.0,10.0,79,0.00,,CLR,0.00,42.00,VWS V14.01,2013-06-24 00:50:00,
2013-06-23 19:55:00,77.2,70.2,29.88,SE,144,6.0,10.0,79,0.00,,CLR,0.00,35.00,VWS V14.01,2013-06-24 00:55:00,
2013-06-23 20:00:00,77.0,70.0,29.88,SSE,168,11.0,11.0,79,0.00,,CLR,0.00,28.00,VWS V14.01,2013-06-24 01:00:00,
2013-06-23 20:05:00,76.8,70.2,29.88,SSE,156,7.0,13.0,80,0.00,,CLR,0.00,23.00,VWS V14.01,2013-06-24 01:05:00,
2013-06-23 20:10:00,76.8,70.2,29.88,South,187,9.0,11.0,80,0.00,,CLR,0.00,16.00,VWS V14.01,2013-06-24 01:10:00,
2013-06-23 20:16:00,76.8,70.2,29.88,SE,134,8.0,12.0,80,0.00,,CLR,0.00,9.00,VWS V14.01,2013-06-24 01:16:00,
2013-06-23 20:21:00,76.8,70.2,29.88,SE,127,12.0,14.0,80,0.00,,CLR,0.00,5.00,VWS V14.01,2013-06-24 01:21:00,
2013-06-23 20:26:00,76.8,70.2,29.89,SE,139,5.0,6.0,80,0.00,,CLR,0.00,0.00,VWS V14.01,2013-06-24 01:26:00,
2013-06-23 20:31:00,76.7,70.4,29.90,SE,140,4.0,5.0,81,0.00,,CLR,0.00,0.00,VWS V14.01,2013-06-24 01:31:00,
2013-06-23 20:36:00,76.7,70.4,29.91,SE,141,0.0,4.0,81,0.00,,CLR,0.00,0.00,VWS V14.01,2013-06-24 01:36:00,
2013-06-23 20:41:00,76.5,70.2,29.90,SE,136,6.0,9.0,81,0.00,,CLR,0.00,0.00,VWS V14.01,2013-06-24 01:41:00,
2013-06-23 20:46:00,76.5,70.6,29.90,SE,146,2.0,5.0,82,0.00,,CLR,0.00,0.00,VWS V14.01,2013-06-24 01:46:00,
2013-06-23 20:51:00,76.3,70.4,29.90,SSE,153,7.0,9.0,82,0.00,,CLR,0.00,0.00,VWS V14.01,2013-06-24 01:51:00,
2013-06-23 20:56:00,76.1,70.2,29.91,SSE,150,0.0,4.0,82,0.00,,CLR,0.00,0.00,VWS V14.01,2013-06-24 01:56:00,
2013-06-23 21:02:00,76.1,70.2,29.91,SSE,153,2.0,4.0,82,0.00,,CLR,0.00,0.00,VWS V14.01,2013-06-24 02:02:00,
2013-06-23 21:07:00,76.0,70.1,29.91,SSE,151,7.0,10.0,82,0.00,,CLR,0.00,0.00,VWS V14.01,2013-06-24 02:07:00,
2013-06-23 21:12:00,76.0,69.8,29.92,SSE,159,4.0,4.0,81,0.00,,CLR,0.00,0.00,VWS V14.01,2013-06-24 02:12:00,
2013-06-23 21:18:00,75.8,69.6,29.92,SSE,148,5.0,8.0,81,0.00,,CLR,0.00,0.00,VWS V14.01,2013-06-24 02:18:00,
2013-06-23 21:23:00,75.8,69.9,29.93,SSE,161,1.0,7.0,82,0.00,,CLR,0.00,0.00,VWS V14.01,2013-06-24 02:23:00,
2013-06-23 21:28:00,75.6,69.7,29.93,SSE,148,5.0,5.0,82,0.00,,CLR,0.00,0.00,VWS V14.01,2013-06-24 02:28:00,
2013-06-23 21:33:00,75.6,69.7,29.93,SSE,153,7.0,9.0,82,0.00,,CLR,0.00,0.00,VWS V14.01,2013-06-24 02:33:00,
2013-06-23 21:38:00,75.4,69.5,29.93,SSE,165,4.0,9.0,82,0.00,,CLR,0.00,0.00,VWS V14.01,2013-06-24 02:38:00,
2013-06-23 21:43:00,75.4,69.5,29.94,SSE,154,1.0,7.0,82,0.00,,CLR,0.00,0.00,VWS V14.01,2013-06-24 02:43:00,
2013-06-23 21:48:00,75.4,69.5,29.94,SSE,154,0.0,6.0,82,0.00,,CLR,0.00,0.00,VWS V14.01,2013-06-24 02:48:00,
2013-06-23 21:54:00,75.3,69.8,29.95,SSE,154,2.0,2.0,83,0.00,,CLR,0.00,0.00,VWS V14.01,2013-06-24 02:54:00,
2013-06-23 21:59:00,75.3,69.8,29.95,SSE,161,0.0,9.0,83,0.00,,CLR,0.00,0.00,VWS V14.01,2013-06-24 02:59:00,
2013-06-23 22:04:00,75.1,69.9,29.95,South,180,1.0,2.0,84,0.00,,BKN014,0.00,0.00,VWS V14.01,2013-06-24 03:04:00,
2013-06-23 22:10:00,74.9,69.7,29.95,SW,223,0.0,3.0,84,0.00,,BKN014,0.00,0.00,VWS V14.01,2013-06-24 03:10:00,
2013-06-23 22:15:00,74.7,69.9,29.95,SSE,157,0.0,1.0,85,0.00,,BKN014,0.00,0.00,VWS V14.01,2013-06-24 03:15:00,
2013-06-23 22:20:00,74.6,69.8,29.95,SSW,209,4.0,7.0,85,0.00,,BKN014,0.00,0.00,VWS V14.01,2013-06-24 03:20:00,
2013-06-23 22:25:00,74.2,69.1,29.95,SSW,210,4.0,5.0,84,0.00,,BKN014,0.00,0.00,VWS V14.01,2013-06-24 03:25:00,
2013-06-23 22:30:00,73.7,68.2,29.95,WSW,252,2.0,5.0,83,0.00,,BKN014,0.00,0.00,VWS V14.01,2013-06-24 03:30:00,
2013-06-23 22:35:00,73.3,67.8,29.95,WSW,252,0.0,0.0,83,0.00,,BKN014,0.00,0.00,VWS V14.01,2013-06-24 03:35:00,
2013-06-23 22:40:00,73.0,67.5,29.95,WSW,252,0.0,3.0,83,0.00,,BKN014,0.00,0.00,VWS V14.01,2013-06-24 03:40:00,
2013-06-23 22:45:00,72.8,67.3,29.95,WSW,252,0.0,3.0,83,0.00,,BKN014,0.00,0.00,VWS V14.01,2013-06-24 03:45:00,
2013-06-23 22:50:00,72.7,67.2,29.95,WSW,252,0.0,1.0,83,0.00,,BKN014,0.00,0.00,VWS V14.01,2013-06-24 03:50:00,
2013-06-23 22:56:00,72.5,66.7,29.95,WSW,252,1.0,2.0,82,0.00,,BKN014,0.00,0.00,VWS V14.01,2013-06-24 03:56:00,
2013-06-23 23:01:00,72.5,66.7,29.95,WSW,252,0.0,1.0,82,0.00,,FEW014,0.00,0.00,VWS V14.01,2013-06-24 04:01:00,
2013-06-23 23:02:00,72.5,66.7,29.95,WSW,252,0.0,0.0,82,0.00,,FEW014,0.00,0.00,VWS V14.01,2013-06-24 04:02:00,
2013-06-23 23:04:00,72.3,66.5,29.95,WSW,252,0.0,0.0,82,0.00,,FEW014,0.00,0.00,VWS V14.01,2013-06-24 04:04:00,
2013-06-23 23:05:00,72.3,66.5,29.95,WSW,252,0.0,0.0,82,0.00,,FEW014,0.00,0.00,VWS V14.01,2013-06-24 04:05:00,
2013-06-23 23:11:00,72.3,66.5,29.95,WSW,252,2.0,2.0,82,0.00,,FEW014,0.00,0.00,VWS V14.01,2013-06-24 04:11:00,
2013-06-23 23:13:00,72.1,66.3,29.95,WSW,252,1.0,4.0,82,0.00,,FEW014,0.00,0.00,VWS V14.01,2013-06-24 04:13:00,
2013-06-23 23:18:00,72.0,66.2,29.95,WSW,252,0.0,1.0,82,0.00,,FEW014,0.00,0.00,VWS V14.01,2013-06-24 04:18:00,
2013-06-23 23:23:00,72.0,66.2,29.95,WSW,252,0.0,1.0,82,0.00,,FEW014,0.00,0.00,VWS V14.01,2013-06-24 04:23:00,
2013-06-23 23:28:00,71.8,66.4,29.95,WSW,252,1.0,3.0,83,0.00,,FEW014,0.00,0.00,VWS V14.01,2013-06-24 04:28:00,
2013-06-23 23:33:00,71.6,66.2,29.96,WSW,252,1.0,1.0,83,0.00,,FEW014,0.00,0.00,VWS V14.01,2013-06-24 04:33:00,
2013-06-23 23:39:00,71.6,66.5,29.96,WSW,252,0.0,0.0,84,0.00,,FEW014,0.00,0.00,VWS V14.01,2013-06-24 04:39:00,
2013-06-23 23:44:00,71.5,66.4,29.96,WSW,252,0.0,0.0,84,0.00,,FEW014,0.00,0.00,VWS V14.01,2013-06-24 04:44:00,
2013-06-23 23:49:00,71.3,66.2,29.96,WSW,252,0.0,0.0,84,0.00,,FEW014,0.00,0.00,VWS V14.01,2013-06-24 04:49:00,
2013-06-23 23:54:00,71.3,66.2,29.96,WSW,252,0.0,0.0,84,0.00,,FEW014,0.00,0.00,VWS V14.01,2013-06-24 04:54:00,
2013-06-23 23:59:00,71.1,66.0,29.96,WSW,252,0.0,1.0,84,0.00,,FEW014,0.00,0.00,VWS V14.01,2013-06-24 04:59:00,